Regional Weather Roundup
Issued by NWS

Home | Current Version | Previous Version | Text Only | Print | Product List | Glossary Off
Versions: 1 2 3 4 5 6 7 8 9 10 11 12 13 14 15 16 17 18 19 20 21 22 23 24 25 26 27 28 29 30 31 32 33 34 35 36 37 38 39 40 41 42 43 44 45 46 47 48 49 50

000
ASUS43 KBIS 282302
RWRND

NORTH DAKOTA REGIONAL WEATHER ROUNDUP
NATIONAL WEATHER SERVICE BISMARCK ND
600 PM CDT TUE MAR 28 2017

NOTE: "FAIR" INDICATES FEW OR NO CLOUDS BELOW 12,000 FEET WITH NO
SIGNIFICANT WEATHER AND/OR OBSTRUCTIONS TO VISIBILITY.


NDZ001>003-009>011-017-290000-
NORTHWEST NORTH DAKOTA

CITY           SKY/WX    TMP DP  RH WIND       PRES   REMARKS
WILLISTON      CLOUDY    51  41  68 W16G22    30.08R HAZE
MINOT          FAIR      54  43  66 E13       30.07F
MINOT AFB      CLOUDY    45  41  83 SE13      30.07F
$$

NDZ018>021-031>035-040>046-290000-
SOUTHWEST NORTH DAKOTA

CITY           SKY/WX    TMP DP  RH WIND       PRES   REMARKS
BISMARCK       FAIR      61  36  39 SE10      30.08S
DICKINSON      PTSUNNY   59  30  33 S10       30.01S
GARRISON         N/A     58  35  42 S9        30.06S
HETTINGER ARPT PTSUNNY   54  41  61 SE14      30.06R
$$

NDZ004>008-012>016-024-026-027-054-290000-
NORTHEAST NORTH DAKOTA

CITY           SKY/WX    TMP DP  RH WIND       PRES   REMARKS
GRAND FORKS    PTSUNNY   54  44  69 NE8       30.16F
GRND FRKS AFB  MOSUNNY   51  40  66 NE8       30.17F
DEVILS LAKE    FAIR      50  39  66 E13       30.16R
$$

NDZ022-023-025-028>030-036>039-047>053-290000-
SOUTHEAST NORTH DAKOTA

CITY           SKY/WX    TMP DP  RH WIND       PRES   REMARKS
FARGO          SUNNY     58  41  53 NE7       30.14S
JAMESTOWN      FAIR      53  41  63 E10       30.13R
$$





USA.gov is the U.S. government's official web portal to all federal, state and local government web resources and services.